Weather History for Beverly, MA

Change the Weather History Date:

Thursday, December 12, 2013

  Actual Average Record
Temperature  
Mean Temperature 20 °F -  
Max Temperature 25 °F 40 °F 66 °F (1979)
Min Temperature 14 °F 24 °F 14 °F (2013)
Degree Days  
Heating Degree Days 46    
Moisture  
Dew Point 6 °F    
Average Humidity 56    
Maximum Humidity 75    
Minimum Humidity 29    
Precipitation  
Precipitation 0.00 in - - ()
Sea Level Pressure  
Sea Level Pressure 30.18 in    
Wind  
Wind Speed 8 mph (WNW)    
Max Wind Speed 20 mph    
Max Gust Speed 25 mph    
Visibility 10 miles    
Events      
Averages and records for this station are not official NWS values.
T = Trace of Precipitation, MM = Missing Value Source: NWS Daily Summary

Daily Weather History Graph

Daily Weather History Graph

Search for Another Location

Airport:

Trip Planner

Search our weather history database for the weather conditions in past years. The results will help you decide how hot, cold, wet, or windy it might be!

Date:

Astronomy

Dec. 12, 2013 Rise Set
Actual Time 7:04 AM EST 4:10 PM EST
Civil Twilight 6:32 AM EST 4:42 PM EST
Nautical Twilight 5:56 AM EST 5:18 PM EST
Astronomical Twilight 5:22 AM EST 5:52 PM EST
Moon 1:20 PM EST (12/12) 2:19 AM EST (12/12)
Length of Visible Light 10h 10m
Length of Day
9h 06m
Waxing Gibbous, 80% of the Moon is Illuminated
Dec 12
Waxing Gibbous
Dec 17
Full
Dec 25
Last Quarter
Jan 1
New
Jan 7
First Quarter

Hourly Weather History & Observations

Time (EST) Temp. Windchill Dew Point Humidity Pressure Visibility Wind Dir Wind Speed Gust Speed Precip Events Conditions
12:53 AM 21.9 °F 13.4 °F 15.1 °F 75% 30.12 in 10.0 mi West 6.9 mph - N/A   Clear
1:53 AM 21.9 °F 11.7 °F 15.1 °F 75% 30.14 in 10.0 mi WNW 9.2 mph - N/A   Mostly Cloudy
2:09 AM 23.0 °F 13.9 °F 16.0 °F 74% 30.15 in 10.0 mi NW 8.1 mph - N/A   Overcast
2:53 AM 21.9 °F 13.4 °F 14.0 °F 72% 30.16 in 10.0 mi NW 6.9 mph - N/A   Partly Cloudy
3:28 AM 21.9 °F 11.7 °F 15.1 °F 75% 30.17 in 10.0 mi NNW 9.2 mph - N/A   Mostly Cloudy
3:36 AM 21.9 °F 11.7 °F 14.0 °F 72% 30.17 in 10.0 mi NNW 9.2 mph - N/A   Overcast
3:53 AM 21.0 °F 10.6 °F 12.9 °F 71% 30.17 in 10.0 mi NW 9.2 mph - N/A   Overcast
4:53 AM 18.0 °F 11.1 °F 10.0 °F 71% 30.18 in 10.0 mi NW 4.6 mph - N/A   Clear
5:53 AM 19.0 °F - 10.0 °F 68% 30.21 in 10.0 mi Calm Calm - N/A   Clear
6:53 AM 17.1 °F 10.0 °F 9.0 °F 71% 30.22 in 10.0 mi North 4.6 mph - N/A   Partly Cloudy
7:53 AM 18.0 °F - 10.9 °F 74% 30.24 in 10.0 mi Calm Calm - N/A   Partly Cloudy
8:53 AM 21.0 °F 11.4 °F 9.0 °F 60% 30.25 in 10.0 mi NW 8.1 mph - N/A   Clear
9:53 AM 23.0 °F 11.7 °F 3.9 °F 44% 30.25 in 10.0 mi NW 11.5 mph - N/A   Partly Cloudy
10:53 AM 24.1 °F 9.8 °F 1.9 °F 38% 30.23 in 10.0 mi NW 19.6 mph 25.3 mph N/A   Clear
11:53 AM 24.1 °F 10.6 °F 1.9 °F 38% 30.21 in 10.0 mi NNW 17.3 mph 25.3 mph N/A   Partly Cloudy
12:53 PM 25.0 °F 12.2 °F -0.0 °F 34% 30.19 in 10.0 mi NW 16.1 mph 23.0 mph N/A   Clear
1:53 PM 24.1 °F 13.1 °F -2.9 °F 31% 30.17 in 10.0 mi WNW 11.5 mph 20.7 mph N/A   Clear
2:53 PM 24.1 °F 13.7 °F -4.0 °F 29% 30.19 in 10.0 mi NNW 10.4 mph - N/A   Partly Cloudy
3:53 PM 21.0 °F 14.6 °F -2.9 °F 35% 30.19 in 10.0 mi NNW 4.6 mph - N/A   Partly Cloudy
4:53 PM 19.9 °F - -2.9 °F 37% 30.18 in 10.0 mi Calm Calm - N/A   Clear
5:53 PM 16.0 °F - -0.9 °F 47% 30.18 in 10.0 mi Calm Calm - N/A   Clear
6:53 PM 14.0 °F 5.1 °F 1.0 °F 56% 30.19 in 10.0 mi West 5.8 mph - N/A   Clear
7:53 PM 17.1 °F 7.6 °F 1.0 °F 50% 30.18 in 10.0 mi West 6.9 mph - N/A   Clear
8:53 PM 16.0 °F 8.8 °F 1.0 °F 52% 30.16 in 10.0 mi WSW 4.6 mph - N/A   Clear
9:53 PM 15.1 °F 7.7 °F 1.9 °F 56% 30.12 in 10.0 mi SW 4.6 mph - N/A   Clear
10:53 PM 16.0 °F 6.3 °F 3.0 °F 57% 30.09 in 10.0 mi SSW 6.9 mph - N/A   Clear
11:53 PM 16.0 °F 7.4 °F 3.0 °F 57% 30.06 in 10.0 mi SSW 5.8 mph - N/A   Clear